BEIDOU-3 M12

Last updated on May 15, 2019, 3:07 a.m. UTC

1 43603U 18067B   19134.36699233 -.00000052  00000-0  00000+0 0  9994
2 43603  54.8594 269.3683 0002657 342.3564  93.7018  1.86231604  4897
UTC
Height (km)
Latitude
Longitude
Inclination
Orbital Period
UTC large
Height (km)
Speed (km/s)
/
Latitude / Longitude
Inclination (degrees)
Orbital Period (minutes)
Azimuth
Elevation
Range (km)
Doppler Factor
iOS Compass Heading
iOS Angle

Next 30 passes for location: Hong Kong

Rise time Rise Azimuth (degrees) Set time Set Azimuth (degrees) Duration Max altitude (degrees)

No matching passes for this satellites